Location: Newark
(25.0000°N, 73.5000°E)
Time: 00:11:03
(UTC+00:00)

RS-15 - Pass Details

Date: 25 February 2020
Orbit: 1898 x 2146 km, 64.8° (Epoch: 28 March)

Event Time Altitude Azimuth Distance (km) Brightness Sun altitude
Rises 15:56:29 0° 247° (WSW) 5,362 11.0 -39.4°
Reaches altitude 10° 16:00:54 10° 261° (W) 4,333 10.5 -40.4°
Maximum altitude 16:09:02 23° 310° (NW) 3,354 9.6 -42.2°
Drops below altitude 10° 16:17:09 10° 359° (N) 4,286 9.9 -44.0°
Sets 16:21:34 0° 14° (NNE) 5,291 10.3 -44.9°
